STARLINK-4676 (53598 NORAD) Tracking and Keplerian Element Data

This shows tracking and keplerian element data for the satellite.

Feedback or suggestion? Click here.




ElementValue
Catalog53598
NameSTARLINK-4676
Epoch Orbit130
Epoch Day324.91667824
Epoch Year2022
RAAN252.3816
Inclination53.2191
Eccentricity0.0001657
Argument of Perigee63.5508
Mean Anonmoly81.0365
Mean Motion15.08852853
Decay Rate-0.00045559
L11 53598U 22104L 22324.91667824 -.00045559 00000+0 -28616-2 0 9999
L22 53598 53.2191 252.3816 0001657 63.5508 81.0365 15.08852853 1308



Live tracking and technical data element details for STARLINK-4676 (NORAD 53598). STARLINK-4676 can be tracked NOW for your location showing map with azimuth and elevation plus other details from your city location.







IsCatalogInMostPopularTable: catalog: 53598, numindb: 1
Update: records affected: 1



GetName: 53598 STARLINK-4676

Hit Count: updated at: Thu, 08 Dec 2022 20:39:01 GMT